Location: Cudham
(51.3000°N, 0.0667°E)
Time: 16:58:25
(UTC+00:00)

Cosmos 2221 - Pass Details

Date: 19 May 2025
Orbit: 572 x 593 km, 82.5° (Epoch: 13 June)

Event Time Altitude Azimuth Distance (km) Brightness Sun altitude
Exits shadow 21:37:36 18° 163° (SSE) 1,436 3.8 -12.5°
Maximum altitude 21:40:27 49° 94° (E) 749 2.7 -12.8°
Drops below altitude 10° 21:44:29 10° 20° (NNE) 1,896 5.6 -13.1°
Sets 21:46:43 0° 15° (NNE) 2,798 6.6 -13.3°
